• In Germany
  • List of Countries
  • For 7 days
  • Water Temperature
  • Satellite Maps
  • Weather Map
  • Weather Widgets
  • user-avatar
    Login

    Hourly Weather Ilebo

    Today, 28 May, Monday

    Time Temperature Precipitation Wind Pressure Humidity
    00:00 +26°C° 0.3 mm 1 mps 723 mmHg 74%
    01:00 +25°C° 0.3 mm 1 mps 723 mmHg 80%
    02:00 +25°C° 0.4 mm 1 mps 723 mmHg 83%
    03:00 +24°C° 0.4 mm 1 mps 723 mmHg 87%
    04:00 +22°C° 0.4 mm 0 mps 723 mmHg 91%
    05:00 +24°C° 0.7 mm 1 mps 723 mmHg 92%
    06:00 +24°C° 0.7 mm 1 mps 724 mmHg 93%
    07:00 +24°C° 0.7 mm 1 mps 724 mmHg 94%
    08:00 +25°C° 0.2 mm 1 mps 724 mmHg 91%
    09:00 +26°C° 0.2 mm 2 mps 725 mmHg 87%
    10:00 +27°C° 0.2 mm 2 mps 725 mmHg 84%
    11:00 +28°C° 0.3 mm 2 mps 724 mmHg 78%
    12:00 +30°C° 0.3 mm 1 mps 724 mmHg 72%
    13:00 +31°C° 0.3 mm 1 mps 724 mmHg 65%
    14:00 +30°C° 1.2 mm 1 mps 723 mmHg 71%
    15:00 +30°C° 1.2 mm 1 mps 723 mmHg 76%
    16:00 +29°C° 1.2 mm 1 mps 722 mmHg 82%
    17:00 +28°C° 0.1 mm 1 mps 722 mmHg 85%
    18:00 +26°C° 0.1 mm 1 mps 722 mmHg 88%
    19:00 +25°C° 0.1 mm 2 mps 723 mmHg 92%
    20:00 +25°C° 0 mm 2 mps 723 mmHg 92%
    21:00 +25°C° 0 mm 2 mps 723 mmHg 91%
    22:00 +24°C° 0 mm 1 mps 723 mmHg 91%
    23:00 +24°C° 0 mm 1 mps 723 mmHg 91%

    Tomorrow, 29 May, Tuesday

    Time Temperature Precipitation Wind Pressure Humidity
    00:00 +24°C° 0 mm 1 mps 722 mmHg 91%
    01:00 +24°C° 0 mm 1 mps 722 mmHg 91%
    02:00 +23°C° 0 mm 1 mps 722 mmHg 90%
    03:00 +23°C° 0 mm 1 mps 722 mmHg 90%
    04:00 +21°C° 0 mm 0 mps 722 mmHg 90%
    05:00 +22°C° 0 mm 0 mps 723 mmHg 88%
    06:00 +23°C° 0 mm 0 mps 723 mmHg 86%
    07:00 +23°C° 0 mm 0 mps 724 mmHg 85%
    08:00 +28°C° 0 mm 1 mps 724 mmHg 74%
    09:00 +30°C° 0 mm 1 mps 725 mmHg 63%
    10:00 +34°C° 0 mm 2 mps 725 mmHg 53%
    11:00 +34°C° 0.3 mm 1 mps 724 mmHg 50%
    12:00 +35°C° 0.3 mm 1 mps 724 mmHg 47%
    13:00 +36°C° 0.3 mm 1 mps 723 mmHg 44%
    14:00 +35°C° 0 mm 1 mps 722 mmHg 47%
    15:00 +34°C° 0 mm 1 mps 722 mmHg 51%
    16:00 +33°C° 0 mm 1 mps 721 mmHg 54%
    17:00 +31°C° 0.7 mm 1 mps 721 mmHg 63%
    18:00 +29°C° 0.7 mm 1 mps 721 mmHg 72%
    19:00 +27°C° 0.7 mm 2 mps 722 mmHg 81%
    20:00 +26°C° 0.5 mm 2 mps 722 mmHg 85%
    21:00 +25°C° 0.5 mm 2 mps 722 mmHg 89%
    22:00 +24°C° 0.5 mm 2 mps 723 mmHg 94%
    23:00 +24°C° 0.2 mm 2 mps 723 mmHg 95%

    Day after tomorrow, 30 May, Wednesday

    Time Temperature Precipitation Wind Pressure Humidity
    00:00 +24°C° 0.2 mm 1 mps 722 mmHg 95%
    01:00 +24°C° 0.2 mm 1 mps 722 mmHg 96%
    02:00 +24°C° 0.2 mm 1 mps 722 mmHg 96%
    03:00 +23°C° 0.2 mm 1 mps 722 mmHg 96%
    04:00 +23°C° 0.2 mm 1 mps 722 mmHg 97%
    05:00 +22°C° 0 mm 0 mps 723 mmHg 94%
    06:00 +23°C° 0 mm 0 mps 723 mmHg 92%
    07:00 +24°C° 0 mm 0 mps 724 mmHg 90%
    08:00 +28°C° 0 mm 1 mps 724 mmHg 77%
    09:00 +31°C° 0 mm 1 mps 725 mmHg 65%
    10:00 +34°C° 0 mm 2 mps 725 mmHg 52%
    11:00 +34°C° 0 mm 1 mps 724 mmHg 48%
    12:00 +36°C° 0 mm 1 mps 724 mmHg 44%
    13:00 +37°C° 0 mm 1 mps 723 mmHg 40%
    14:00 +36°C° 0 mm 1 mps 723 mmHg 43%
    15:00 +35°C° 0 mm 1 mps 722 mmHg 45%
    16:00 +34°C° 0 mm 1 mps 721 mmHg 48%
    17:00 +33°C° 0 mm 1 mps 722 mmHg 53%
    18:00 +31°C° 0 mm 1 mps 722 mmHg 58%
    19:00 +27°C° 0 mm 0 mps 722 mmHg 63%
    20:00 +28°C° 0.4 mm 1 mps 723 mmHg 69%
    21:00 +27°C° 0.4 mm 1 mps 723 mmHg 75%
    22:00 +26°C° 0.4 mm 1 mps 723 mmHg 81%
    23:00 +25°C° 1 mm 1 mps 723 mmHg 86%

    31 May, Thursday

    Time Temperature Precipitation Wind Pressure Humidity
    00:00 +25°C° 1 mm 1 mps 722 mmHg 90%
    01:00 +24°C° 1 mm 1 mps 722 mmHg 95%
    02:00 +24°C° 0 mm 1 mps 722 mmHg 94%
    03:00 +22°C° 0 mm 0 mps 722 mmHg 94%
    04:00 +22°C° 0 mm 0 mps 722 mmHg 94%
    05:00 +23°C° 0 mm 0 mps 723 mmHg 93%
    06:00 +23°C° 0 mm 0 mps 723 mmHg 92%
    07:00 +24°C° 0 mm 0 mps 724 mmHg 91%
    08:00 +27°C° 0.2 mm 1 mps 724 mmHg 85%
    09:00 +28°C° 0.2 mm 1 mps 724 mmHg 79%
    10:00 +30°C° 0.2 mm 2 mps 725 mmHg 73%
    11:00 +31°C° 0 mm 2 mps 724 mmHg 64%
    12:00 +34°C° 0 mm 2 mps 723 mmHg 56%
    13:00 +35°C° 0 mm 2 mps 723 mmHg 47%
    14:00 +35°C° 0 mm 2 mps 722 mmHg 49%
    15:00 +34°C° 0 mm 2 mps 722 mmHg 50%
    16:00 +34°C° 0 mm 2 mps 722 mmHg 51%
    17:00 +31°C° 0 mm 2 mps 722 mmHg 58%
    18:00 +29°C° 0 mm 1 mps 722 mmHg 65%
    19:00 +28°C° 0 mm 1 mps 723 mmHg 71%
    20:00 +27°C° 0.1 mm 1 mps 723 mmHg 73%
    21:00 +26°C° 0.1 mm 1 mps 723 mmHg 75%
    22:00 +26°C° 0.1 mm 1 mps 723 mmHg 77%
    23:00 +26°C° 0 mm 1 mps 723 mmHg 76%

    1 June, Friday

    Time Temperature Precipitation Wind Pressure Humidity
    00:00 +25°C° 0 mm 1 mps 722 mmHg 75%
    01:00 +25°C° 0 mm 1 mps 722 mmHg 74%
    02:00 +25°C° 0.3 mm 1 mps 722 mmHg 76%
    03:00 +22°C° 0.3 mm 0 mps 722 mmHg 78%
    04:00 +22°C° 0.3 mm 0 mps 722 mmHg 81%
    05:00 +23°C° 0 mm 0 mps 723 mmHg 78%
    06:00 +24°C° 0 mm 0 mps 723 mmHg 76%
    07:00 +24°C° 0 mm 0 mps 724 mmHg 73%
    08:00 +28°C° 0 mm 1 mps 724 mmHg 66%
    09:00 +30°C° 0 mm 1 mps 724 mmHg 58%
    10:00 +32°C° 0 mm 1 mps 725 mmHg 51%
    11:00 +33°C° 0 mm 1 mps 724 mmHg 48%
    12:00 +34°C° 0 mm 1 mps 723 mmHg 44%
    13:00 +35°C° 0 mm 1 mps 722 mmHg 41%
    14:00 +35°C° 0 mm 1 mps 722 mmHg 41%
    15:00 +35°C° 0 mm 1 mps 721 mmHg 42%
    16:00 +35°C° 0 mm 1 mps 721 mmHg 42%
    17:00 +33°C° 0 mm 1 mps 721 mmHg 48%
    18:00 +31°C° 0 mm 1 mps 722 mmHg 54%
    19:00 +29°C° 0 mm 1 mps 722 mmHg 60%
    20:00 +28°C° 0 mm 1 mps 722 mmHg 62%
    21:00 +27°C° 0 mm 1 mps 722 mmHg 64%
    22:00 +25°C° 0 mm 0 mps 722 mmHg 67%
    23:00 +24°C° 0 mm 0 mps 722 mmHg 70%

    2 June, Saturday

    Time Temperature Precipitation Wind Pressure Humidity
    00:00 +24°C° 0 mm 0 mps 722 mmHg 72%
    01:00 +23°C° 0 mm 0 mps 722 mmHg 75%
    02:00 +23°C° 0.3 mm 0 mps 722 mmHg 78%
    03:00 +23°C° 0.3 mm 0 mps 722 mmHg 81%
    04:00 +22°C° 0.3 mm 0 mps 722 mmHg 84%
    05:00 +25°C° 0.2 mm 1 mps 723 mmHg 84%
    06:00 +26°C° 0.2 mm 1 mps 723 mmHg 83%
    07:00 +26°C° 0.2 mm 1 mps 724 mmHg 83%
    08:00 +29°C° 0 mm 1 mps 724 mmHg 72%
    09:00 +32°C° 0 mm 1 mps 724 mmHg 61%
    10:00 +35°C° 0 mm 1 mps 724 mmHg 50%
    11:00 +36°C° 0 mm 1 mps 723 mmHg 45%
    12:00 +37°C° 0 mm 1 mps 723 mmHg 40%
    13:00 +40°C° 0 mm 1 mps 722 mmHg 35%
    14:00 +37°C° 0 mm 1 mps 722 mmHg 38%
    15:00 +36°C° 0 mm 1 mps 721 mmHg 41%
    16:00 +33°C° 0 mm 0 mps 721 mmHg 43%
    17:00 +33°C° 0 mm 1 mps 721 mmHg 49%
    18:00 +31°C° 0 mm 1 mps 721 mmHg 55%
    19:00 +30°C° 0 mm 1 mps 721 mmHg 60%
    20:00 +28°C° 0.4 mm 1 mps 722 mmHg 69%
    21:00 +27°C° 0.4 mm 1 mps 722 mmHg 77%
    22:00 +26°C° 0.4 mm 1 mps 722 mmHg 86%
    23:00 +25°C° 0.1 mm 1 mps 722 mmHg 87%
    Show more